Location: Bruneau Dunes Observatory
(42.9024°N, 115.6902°W)
Time: 10:48:37
(UTC-06:00)

Cosmos 2333 Rocket - Visible Passes

Search period start: 18 October 2017 00:00
Search period end: 28 October 2017 00:00
Orbit: 840 x 862 km, 70.8° (Epoch: 18 October)

Date Brightness Start Highest point End Pass type
(mag) Time Alt. Az. Time Alt. Az. Time Alt. Az.
18 Oct 2.6 20:30:06 10° NNW 20:35:33 42° ENE 20:37:00 36° E visible
18 Oct 3.8 22:14:41 10° NW 22:19:03 30° W 22:19:03 30° W visible
19 Oct 2.6 20:17:47 10° NNW 20:23:14 42° ENE 20:25:41 28° ESE visible
19 Oct 3.7 22:02:22 10° NW 22:07:19 30° WSW 22:07:44 30° WSW visible
20 Oct 2.6 20:05:28 10° NNW 20:10:56 42° ENE 20:14:33 20° ESE visible
20 Oct 3.8 21:50:03 10° NW 21:55:00 30° WSW 21:56:37 26° SW visible
21 Oct 2.6 19:53:09 10° NNW 19:58:36 42° ENE 20:03:41 12° SE visible
21 Oct 3.9 21:37:45 10° NW 21:42:41 30° WSW 21:45:47 19° SSW visible
22 Oct 2.6 19:40:51 10° NNW 19:46:17 42° ENE 19:51:43 10° SE visible
22 Oct 3.9 21:25:26 10° NW 21:30:23 30° WSW 21:35:19 10° SSW visible
23 Oct 2.6 19:28:32 10° NNW 19:33:59 42° ENE 19:39:25 10° SE visible
23 Oct 3.9 21:13:07 10° NW 21:18:04 30° WSW 21:23:01 10° SSW visible
24 Oct 2.6 19:16:13 10° NNW 19:21:40 42° ENE 19:27:06 10° SE visible
24 Oct 4.0 21:00:48 10° NW 21:05:46 30° WSW 21:10:42 10° SSW visible
25 Oct 2.6 19:03:54 10° NNW 19:09:21 42° ENE 19:14:47 10° SE visible
25 Oct 4.0 20:48:29 10° NW 20:53:26 31° WSW 20:58:23 10° SSW visible
26 Oct 4.1 20:36:11 10° NW 20:41:07 31° WSW 20:46:04 10° SSW visible
27 Oct 4.1 20:23:52 10° NW 20:28:49 31° WSW 20:33:46 10° SSW visible
